Terminal Aerodrome Forecast
Issued by NWS St Louis, MO

Home | Current Version | Previous Version | Text Only | Print | Product List | Glossary On
Versions: 1 2 3 4 5 6 7 8 9 10 11 12 13 14 15 16 17 18 19 20 21 22 23 24 25 26 27 28 29 30 31 32
000
FTUS43 KLSX 201400 AAB
TAFSTL
TAF AMD
KSTL 201415Z 2014/2118 12007KT P6SM BKN080
     FM201800 23009KT P6SM FEW040
     FM210100 16006KT P6SM SCT090
     FM211500 22010KT P6SM SCT040=

USA.gov is the U.S. government's official web portal to all federal, state and local government web resources and services.